Погода в Новоникольском

Россия / Томская область     59°45′51″N   79°12′41″E
темп.,
°C
ветер,
м/с
пор.,
м/с
влажн.,
%
обл.,
%
осадки,
мм/ч
давл.,
гПа
погр.,
м
14 мая, пт
пт1401:00+6с81161100 0.0 10211172
04:00+4ссз68675 0.0 1022737
07:00+3ссз58686 0.0 1024555
10:00+6сз564570 0.0 1024800
13:00+10зсз673192 0.0 10231094
16:00+15зюз792995 0.0 10191275
19:00+17зюз8143738 0.1 10171346
22:00+16юз713525 0.1 1013254
15 мая, сб
сб1501:00+15зюз10176715 0.5 1012391
04:00+15зсз71378100 0.8 1012343
07:00+14зсз5108797 0.8 1013350
10:00+16ссз2275100 0.0 1013589
13:00+16всв1275100 0.3 1013422
16:00+11св787599 0.4 1014416
19:00+10всв4578100 0.7 1015303
22:00+8всв358689 0.0 1015220
16 мая, вс
вс1601:00+7вюв4893100 0.0 1015230
04:00+7вюв4691100 0.0 1013222
07:00+8всв3489100 0.8 1013250
10:00+8в448480 0.3 1014328
13:00+10всв2272100 0.3 1014582
16:00+11св1168100 0.0 1014640
19:00+11св2274100 0.6 1014405
22:00+8в4590100 2.4 1013261
17 мая, пн
пн1701:00+7всв2291100 2.9 1014191
04:00+7всв2390100 0.1 1013176
07:00+7ссв228493 0.1 1015191
10:00+7св2277100 0.0 1015286
13:00+12с126467 0.0 1015883
16:00+14ссз1257100 0.0 10141306
19:00+13св2259100 0.0 1013795
22:00+9всв7984100 0.1 1011383
18 мая, вт
вт1801:00+8в5888100 0.4 1011380
04:00+7всв5891100 1.8 1010383
07:00+7всв5980100 1.9 1011423
10:00+9всв575195 0.0 1012612
13:00+12всв5540100 0.0 10131428
16:00+13всв4433100 0.0 10131779
19:00+13св6531100 0.0 10121780
22:00+9св5941100 0.0 1014238